[[{"header":{"parameterUnit":"m.s-1","parameterCategory":1,"la1":30.2991,"la2":30.254,"lo1":-89.0895,"lo2":-89.0444,"dy":0.0017,"dx":0.0017,"nx":28,"ny":28,"refTime":"2025-08-25T03:00:00:Z","depth":0,"parameterNumber":2,"parameterNumberName":"U-component_of_WINDS"},"data":[0,0,0,0,0,0,0,0,0,0,0,0,0,0,0,0,0,0,0,0,0,0,0,0,0,0,0,0,0,0,0,0,0,0,0,0,0,0,0,0,0,0,0,0,0,0,0,0,0,0,0,0,0,0,0,0,0,0,-2.8675,-2.8674,0,-2.8632,-2.8631,-2.8631,-2.8512,-2.8509,-2.8507,-2.8504,-2.8464,-2.8466,-2.8467,0,0,0,0,0,0,0,0,0,0,0,0,0,-2.8659,-2.866,-2.8675,-2.8674,-2.8674,-2.8632,-2.8631,-2.8631,-2.8512,-2.8509,-2.8506,-2.8503,-2.8464,-2.8466,-2.8467,0,0,0,0,0,0,0,0,0,0,0,0,0,-2.8646,-2.866,-2.8675,-2.8609,-2.8603,-2.8632,-2.8631,-2.8631,-2.8513,-2.8509,-2.8505,-2.8502,-2.8463,-2.8465,-2.8467,-2.8558,0,0,-2.8474,-2.8474,0,0,0,0,0,0,0,0,-2.8647,-2.8647,-2.862,-2.8614,-2.8607,-2.8573,-2.8611,-2.8606,-2.8514,-2.8547,-2.8504,-2.85,-2.8504,-2.8502,-2.8503,-2.8556,-2.8554,-2.8474,-2.8475,-2.8476,-2.8476,0,0,0,0,0,0,0,-2.8648,-2.8648,-2.8658,-2.8619,-2.8612,-2.8584,-2.8578,-2.861,-2.8548,-2.8544,-2.8535,-2.8532,-2.85,-2.8501,-2.8501,-2.8553,-2.8474,-2.8476,-2.8477,-2.8478,-2.8682,-2.8686,0,0,0,0,0,0,-2.8658,-2.865,-2.8659,-2.8657,-2.8618,-2.8588,-2.8581,-2.8588,-2.8547,-2.8537,-2.8535,-2.8526,-2.85,-2.8499,-2.8499,-2.8604,-2.8476,-2.8478,-2.8479,-2.8677,-2.8682,-2.8687,0,0,0,0,0,0,-2.8658,-2.866,-2.8661,-2.8651,-2.8649,-2.8592,-2.8601,-2.8589,-2.859,-2.854,-2.8529,-2.8548,-2.8497,-2.8497,-2.8544,-2.8601,-2.8479,-2.8481,-2.8672,-2.8679,-2.8685,-2.8814,0,0,0,0,0,0,-2.8658,-2.8661,-2.8693,-2.8652,-2.865,-2.8705,-2.8605,-2.8591,-2.8594,-2.8582,-2.8549,-2.854,-2.8494,-2.8542,-2.8547,-2.8602,-2.8482,-2.8667,-2.8675,-2.8683,-2.8805,-2.8824,-2.8841,0,0,0,0,0,-2.8658,-2.8731,-2.8695,-2.8697,-2.8689,-2.8709,-2.8707,-2.8651,-2.8599,-2.8632,-2.86,-2.8541,-2.8594,-2.8548,-2.8552,-2.8609,-2.8663,-2.8673,-2.8682,-2.8796,-2.882,-2.884,0,0,0,0,0,0,-2.878,-2.8724,-2.8684,-2.8746,-2.8733,-2.8689,-2.8728,-2.8678,-2.868,-2.8669,-2.8601,-2.8595,-2.8653,-2.8635,-2.8585,-2.8696,-2.8619,-2.863,-2.8705,-2.8727,-2.8745,-2.8748,-2.8484,0,0,0,0,0,-2.8814,-2.8834,-2.8784,-2.8844,-2.884,-2.8786,-2.8792,-2.875,-2.8735,-2.8729,-2.87,-2.8689,-2.8703,-2.8714,-2.8724,-2.8801,-2.8794,-2.8843,-2.8861,-2.8876,-2.8887,-2.8929,-2.8951,-2.8718,-2.8718,-2.8718,0,0,-2.8885,-2.8857,-2.8873,-2.8868,-2.8853,-2.8877,-2.8782,-2.881,-2.8828,-2.8733,-2.8777,-2.8757,-2.874,-2.8804,-2.883,-2.8791,-2.895,-2.8888,-2.8901,-2.8903,-2.8941,-2.8964,-2.8983,-2.8725,-2.8723,-2.8722,0,0,-2.9026,-2.9006,-2.9054,-2.9042,-2.902,-2.8984,-2.8996,-2.896,-2.8943,-2.8985,-2.8916,-2.8937,-2.8962,-2.8954,-2.8953,-2.9095,-2.9042,-2.91,-2.9195,-2.9238,-2.9256,-2.9272,-2.9325,-2.9345,-2.911,-2.9111,-2.9111,0,-2.9117,-2.9148,-2.9086,-2.9119,-2.9121,-2.9036,-2.9086,-2.9077,-2.9061,-2.9065,-2.9021,-2.9053,-2.9035,-2.9097,-2.9132,-2.9133,-2.9147,-2.9103,-2.9258,-2.9274,-2.9288,-2.9337,-2.9357,-2.9118,-2.9117,-2.9117,-2.9116,0,-2.9262,-2.9286,-2.9327,-2.9314,-2.9319,-2.9361,-2.9308,-2.9321,-2.928,-2.925,-2.9296,-2.9272,-2.9278,-2.9289,-2.9249,-2.9347,-2.9324,-2.927,-2.9192,-2.9318,-2.9364,-2.9382,-2.9129,-2.9126,-2.9124,-2.9122,0,0,-2.9477,-2.943,-2.9447,-2.9441,-2.9413,-2.9431,-2.947,-2.9475,-2.9489,-2.9482,-2.9515,-2.954,-2.9491,-2.949,-2.9448,-2.9485,-2.9603,-2.9427,-2.9426,-2.9463,-2.9713,-2.9755,-2.9777,-2.9567,-2.9571,-2.9573,-2.9715,0,-2.9612,-2.9675,-2.9622,-2.9696,-2.9719,-2.964,-2.9675,-2.9664,-2.9637,-2.9654,-2.9625,-2.9645,-2.9577,-2.9577,-2.961,-2.9581,-2.9652,-2.957,-2.96,-2.9602,-2.9608,-2.9801,-2.9844,-2.9979,-2.9732,-2.9735,-2.9737,0,-2.9777,-2.9777,-2.9854,-2.9823,-2.9831,-2.9863,-2.9865,-2.9881,-2.9867,-2.9845,-2.9846,-2.9796,-2.9835,-2.9759,-2.9814,-2.9759,-2.9769,-2.9757,-2.9761,-2.9762,-2.9678,-2.9809,-3.002,-3.0041,-2.9764,-2.9762,-2.976,0,-2.9929,-2.9949,-2.9997,-2.9995,-2.996,-2.9985,-2.9972,-2.9954,-2.9961,-2.9963,-2.9968,-2.9975,-2.9979,-2.9987,-2.9941,-2.9889,-3.0003,-2.9922,-2.9989,-2.999,-3.0017,-3.0016,-3.0234,-3.0021,-3.0021,-3.002,-3.002,0,-3.0086,-3.0136,-3.0066,-3.0096,-3.0152,-3.0091,-3.0148,-3.0127,-3.0113,-3.014,-3.0072,-3.01,-3.0036,-3.0057,-3.0022,-3.0075,-3.0077,-3.0062,-3.0053,-3.0069,-3.0071,-3.0075,-3.0065,-3.0025,-3.0024,-3.0023,-3.0022,0,-3.0265,-3.0219,-3.0268,-3.0231,-3.0224,-3.0266,-3.0236,-3.0264,-3.0234,-3.0269,-3.0274,-3.0228,-3.025,-3.0204,-3.022,-3.0196,-3.0272,-3.0246,-3.0276,-3.0269,-3.0339,-3.0334,-3.0568,-3.0597,-3.0365,-3.0367,-3.0369,0,-3.0368,-3.0405,-3.0373,-3.0386,-3.0377,-3.0398,-3.0405,-3.0348,-3.0359,-3.0348,-3.0378,-3.0394,-3.0404,-3.0444,-3.0413,-3.0426,-3.0401,-3.0483,-3.0403,-3.0419,-3.0405,-3.0404,-3.0409,-3.0499,-3.0502,-3.0504,-3.0506,0,-3.0557,-3.0533,-3.0545,-3.0551,-3.0562,-3.0564,-3.0561,-3.0576,-3.0516,-3.0532,-3.0553,-3.0561,-3.0578,-3.0597,-3.0603,-3.0591,-3.0541,-3.0532,-3.0548,-3.0566,-3.0583,-3.0577,-3.0323,-3.0527,-3.0525,-3.0523,-3.0522,-3.0521,-3.0702,-3.0733,-3.0716,-3.0733,-3.0725,-3.0725,-3.075,-3.0724,-3.074,-3.0749,-3.0715,-3.0745,-3.0734,-3.0736,-3.0731,-3.0756,-3.0719,-3.0743,-3.0749,-3.0756,-3.0768,-3.0578,-3.0756,-3.0756,-3.0755,-3.0754,-3.0754,0,-3.089,-3.0875,-3.0892,-3.089,-3.0905,-3.0854,-3.085,-3.0866,-3.0893,-3.0886,-3.0897,-3.0924,-3.0942,-3.0914,-3.0928,-3.0953,-3.0931,-3.0959,-3.0957,-3.0956,-3.0798,-3.0784,-3.0978,-3.0977,-3.0977,-3.0977,-3.0977,-3.0977,-3.0989,-3.1039,-3.1014,-3.1061,-3.1046,-3.1074,-3.1076,-3.1077,-3.1072,-3.1104,-3.1119,-3.11,-3.1085,-3.1098,-3.1114,-3.1105,-3.1114,-3.1152,-3.1136,-3.0989,-3.0967,-3.0946,-3.0932,-3.1154,-3.1154,-3.1291,-3.1293,-3.1294]},{"header":{"parameterUnit":"m.s-1","parameterCategory":1,"la1":30.2991,"la2":30.254,"lo1":-89.0895,"lo2":-89.0444,"dy":0.0017,"dx":0.0017,"nx":28,"ny":28,"refTime":"2025-08-25T03:00:00:Z","depth":0,"parameterNumber":3,"parameterNumberName":"V-component_of_WINDS"},"data":[0,0,0,0,0,0,0,0,0,0,0,0,0,0,0,0,0,0,0,0,0,0,0,0,0,0,0,0,0,0,0,0,0,0,0,0,0,0,0,0,0,0,0,0,0,0,0,0,0,0,0,0,0,0,0,0,0,0,0.1567,0.1567,0,0.1563,0.1563,0.1563,0.1574,0.1574,0.1574,0.1575,0.157,0.1569,0.1569,0,0,0,0,0,0,0,0,0,0,0,0,0,0.1583,0.1582,0.1567,0.1567,0.1567,0.1563,0.1563,0.1563,0.1574,0.1574,0.1575,0.1575,0.157,0.1569,0.1569,0,0,0,0,0,0,0,0,0,0,0,0,0,0.1577,0.1582,0.1567,0.1572,0.1572,0.1563,0.1563,0.1563,0.1574,0.1574,0.1575,0.1575,0.157,0.1569,0.1569,0.1554,0,0,0.1566,0.1566,0,0,0,0,0,0,0,0,0.1577,0.1576,0.1571,0.1572,0.1572,0.157,0.1567,0.156,0.1574,0.1573,0.1575,0.1575,0.1569,0.1568,0.1567,0.1554,0.1554,0.1566,0.1566,0.1566,0.1566,0,0,0,0,0,0,0,0.1578,0.1577,0.1566,0.1571,0.1572,0.1574,0.1574,0.1566,0.1568,0.1573,0.1574,0.1573,0.1569,0.1567,0.1567,0.1554,0.1566,0.1566,0.1565,0.1565,0.1527,0.1527,0,0,0,0,0,0,0.1578,0.1577,0.1566,0.1565,0.1576,0.1573,0.1573,0.157,0.1568,0.1569,0.1573,0.1574,0.1568,0.1567,0.1566,0.1548,0.1566,0.1565,0.1565,0.1528,0.1527,0.1527,0,0,0,0,0,0,0.1578,0.1577,0.1566,0.1571,0.157,0.1572,0.1569,0.1569,0.1567,0.1568,0.1569,0.157,0.1568,0.1567,0.1557,0.1548,0.1565,0.1564,0.1529,0.1528,0.1527,0.1512,0,0,0,0,0,0,0.1578,0.1577,0.1572,0.1571,0.157,0.1557,0.1568,0.1569,0.1566,0.1567,0.1566,0.1566,0.1569,0.1558,0.1556,0.1547,0.1564,0.153,0.1528,0.1527,0.1513,0.1511,0.1509,0,0,0,0,0,0.1579,0.1568,0.1571,0.157,0.1564,0.1556,0.1556,0.1559,0.1566,0.156,0.1561,0.1566,0.155,0.1557,0.1555,0.1546,0.153,0.1529,0.1527,0.1515,0.1511,0.1509,0,0,0,0,0,0,0.1567,0.1568,0.1572,0.156,0.1558,0.1558,0.1551,0.1556,0.1552,0.1553,0.1558,0.1557,0.1545,0.1545,0.1553,0.1531,0.1541,0.1539,0.1532,0.1529,0.1526,0.1526,0.1563,0,0,0,0,0,0.1563,0.1557,0.1558,0.1548,0.1547,0.1549,0.1546,0.1549,0.1547,0.1546,0.1546,0.1543,0.1537,0.1533,0.1528,0.1514,0.1513,0.1507,0.1505,0.1503,0.15,0.1491,0.1488,0.1522,0.1522,0.1522,0,0,0.1555,0.1554,0.155,0.1546,0.1544,0.1537,0.1548,0.1541,0.1536,0.1545,0.1535,0.1534,0.1532,0.1519,0.1513,0.1518,0.1491,0.1501,0.1499,0.1498,0.1489,0.1486,0.1483,0.1521,0.1522,0.1522,0,0,0.1535,0.1535,0.1526,0.1524,0.1522,0.1524,0.1522,0.1521,0.1521,0.1511,0.1517,0.1511,0.1501,0.1499,0.1496,0.1475,0.1479,0.1474,0.1461,0.1452,0.1449,0.1446,0.1437,0.1434,0.1472,0.1472,0.1472,0,0.1525,0.1516,0.1521,0.1512,0.1509,0.1518,0.1508,0.1506,0.1502,0.1499,0.1505,0.1492,0.1491,0.1477,0.1472,0.147,0.1466,0.1473,0.1449,0.1447,0.1444,0.1435,0.1432,0.1471,0.1471,0.1471,0.1471,0,0.1502,0.1495,0.1488,0.1484,0.148,0.1471,0.1474,0.147,0.1473,0.1474,0.1463,0.1462,0.1456,0.1453,0.1457,0.1439,0.1442,0.1448,0.1458,0.144,0.1432,0.1429,0.147,0.147,0.147,0.147,0,0,0.1474,0.1473,0.147,0.1468,0.1466,0.1461,0.1452,0.1446,0.1441,0.1439,0.143,0.1421,0.1427,0.1424,0.1427,0.1419,0.1401,0.1426,0.1426,0.142,0.1379,0.1373,0.1369,0.1404,0.1404,0.1403,0.1379,0,0.1454,0.1439,0.1443,0.1427,0.142,0.1428,0.142,0.1417,0.1418,0.1412,0.1412,0.1405,0.1414,0.1412,0.1405,0.1404,0.1392,0.1407,0.1395,0.1394,0.1393,0.1365,0.1359,0.1336,0.1376,0.1375,0.1375,0,0.1428,0.1424,0.1408,0.1406,0.1403,0.1396,0.139,0.1385,0.1382,0.1383,0.1379,0.1383,0.1373,0.1384,0.137,0.1379,0.1375,0.1374,0.1373,0.1371,0.1382,0.136,0.1329,0.1324,0.137,0.1371,0.1371,0,0.1408,0.1398,0.1387,0.1385,0.1383,0.1377,0.1376,0.1374,0.137,0.1365,0.1362,0.1356,0.1352,0.1347,0.1349,0.1357,0.1334,0.1345,0.1333,0.1332,0.1326,0.1326,0.1291,0.1326,0.1326,0.1326,0.1327,0,0.1384,0.1373,0.1377,0.137,0.1357,0.1362,0.135,0.1349,0.1347,0.1339,0.1346,0.1338,0.1343,0.1335,0.1337,0.1323,0.1322,0.1322,0.1322,0.132,0.132,0.1316,0.1316,0.1326,0.1326,0.1326,0.1326,0,0.1358,0.136,0.1348,0.1347,0.1347,0.1337,0.1336,0.1329,0.133,0.132,0.1318,0.1319,0.131,0.1313,0.1303,0.1304,0.1287,0.129,0.1288,0.1288,0.1274,0.1275,0.1234,0.1228,0.1269,0.1269,0.1269,0,0.1341,0.1333,0.1331,0.1326,0.1325,0.1317,0.1313,0.1317,0.1312,0.1308,0.13,0.1293,0.1286,0.1272,0.1271,0.1264,0.1265,0.1252,0.1264,0.1262,0.1263,0.1262,0.126,0.1249,0.1248,0.1248,0.1248,0,0.1311,0.1312,0.1306,0.13,0.1295,0.129,0.1286,0.1281,0.1285,0.1279,0.1271,0.1266,0.1256,0.1247,0.124,0.1238,0.1242,0.1244,0.124,0.1237,0.1235,0.1234,0.1279,0.1244,0.1245,0.1245,0.1245,0.1245,0.1288,0.128,0.1277,0.127,0.1267,0.1263,0.1255,0.1255,0.1248,0.1241,0.1244,0.1233,0.1229,0.122,0.1217,0.1208,0.1213,0.1209,0.1207,0.1205,0.1202,0.1238,0.1207,0.1208,0.1208,0.1208,0.1208,0,0.1256,0.1255,0.1248,0.1241,0.1235,0.1241,0.1237,0.1231,0.1221,0.1218,0.1211,0.12,0.1191,0.119,0.1182,0.1175,0.1177,0.1172,0.1172,0.1171,0.12,0.1203,0.1171,0.1171,0.1171,0.1171,0.1171,0.1171,0.1239,0.1225,0.1227,0.1212,0.121,0.12,0.1197,0.1192,0.1189,0.1176,0.1169,0.1169,0.1166,0.1157,0.1149,0.1149,0.1144,0.1139,0.1139,0.1165,0.1169,0.1172,0.1175,0.1138,0.1138,0.1111,0.111,0.111]}]]